Regional Weather Roundup
Issued by NWS

Home | Current Version | Previous Version | Text Only | Print | Product List | Glossary On
Versions: 1 2 3 4 5 6 7 8 9 10 11 12 13 14 15 16 17 18 19 20 21 22 23 24 25 26 27 28 29 30 31 32 33 34 35 36 37 38 39 40 41 42 43 44 45 46 47 48 49 50
000
ASUS43 KLSX 151307
RWRMO

WEATHER SUMMARY FOR MISSOURI
NATIONAL WEATHER SERVICE SPRINGFIELD MO
700 AM CST MON JAN 15 2018

NOTE: "FAIR" INDICATES FEW OR NO CLOUDS BELOW 12,000 FEET WITH NO
       SIGNIFICANT WEATHER AND/OR OBSTRUCTIONS TO VISIBILITY.
       CURRENT SKY AND/OR WEATHER CONDITIONS ARE NOT AVAILABLE FOR
       CHILLICOTHE AND FARMINGTON.

MOZ001>031-035>038-043-044-053-054-151400-
...NORTHERN AND WESTERN MISSOURI...

CITY           SKY/WX    TMP DP  RH WIND       PRES   REMARKS
KANSAS CTY INT CLOUDY    13   4  67 N15       30.40R WCI  -3
KANSAS C DTWN  CLOUDY    16   4  59 N12       30.43R WCI   3
LEE`S SUMMIT   CLOUDY    14   6  70 NW16G25   30.41R WCI  -2
ST JOSEPH        N/A    N/A N/A N/A MISG      30.45R
CHILLICOTHE      N/A     12   3  67 NW17G30   30.40R WCI  -5
KIRKSVILLE     CLEAR      9   3  77 NW13      30.31R WCI  -7

$$
MOZ066>068-077>081-088>096-101>105-151400-
...SOUTHWEST MISSOURI...

CITY           SKY/WX    TMP DP  RH WIND       PRES   REMARKS
SPRINGFIELD    LGT SNOW  31  29  92 NW10      30.29R VSB 1   WCI  22
JOPLIN         LGT SNOW  31  31 100 N7        30.34R VSB 1   WCI  24
BRANSON        LGT SNOW  32  28  86 NW10G17   30.29R FOG     WCI  24

$$
MOZ032>034-039>042-045>050-055>058-069>072-151400-
...CENTRAL MISSOURI...

CITY           SKY/WX    TMP DP  RH WIND       PRES   REMARKS
COLUMBIA       CLOUDY    25  16  68 NW17      30.28R WCI  12
JEFFERSON CITY CLOUDY    28  18  66 NW14G25   30.31R WCI  17
ROLLA          CLOUDY    28  27  96 W13       30.25R WCI  17
SEDALIA        PTCLDY    20  15  81 NW16G24   30.35R WCI   6
WHITEMAN AFB   MOCLDY    19  10  69 N13G21    30.32R WCI   6
WARRENSBURG    CLOUDY    19  10  68 NW12G25   30.38R WCI   7
OSAGE BEACH    FLURRIES  27  21  78 NW7       30.31R WCI  19

$$
MOZ051-052-059>065-151400-
...EAST CENTRAL MISSOURI...

CITY           SKY/WX    TMP DP  RH WIND       PRES   REMARKS
ST LOUIS INTL  FLURRIES  29  27  92 W9        30.22R WCI  20
SPIRIT OF STL  CLOUDY    29  27  92 W9        30.22R FOG     WCI  20
ST CHARLES     CLOUDY    28  26  92 CALM      30.22R

$$
MOZ072>076-082>087-097>100-106>115-151400-
...SOUTH CENTRAL AND SOUTHEAST MISSOURI...

CITY           SKY/WX    TMP DP  RH WIND       PRES   REMARKS
CAPE GIRARDEAU FLURRIES  26  20  77 SW7       30.30R WCI  18
FARMINGTON     LGT SNOW  27  25  93 W7        30.25R FOG     WCI  19
POPLAR BLUFF   CLOUDY    28  22  78 SW9       30.31R WCI  19
WEST PLAINS    CLOUDY    24  19  81 W3        30.26R

$$



USA.gov is the U.S. government's official web portal to all federal, state and local government web resources and services.